Weather History for Split Airport, Croatia

Change the Weather History Date:

Friday, March 28, 2014

  Actual Average Record
Temperature  
Mean Temperature 54 °F -  
Max Temperature 63 °F - - ()
Min Temperature 44 °F - - ()
Degree Days  
Heating Degree Days 12    
Growing Degree Days 4 (Base 50)    
Moisture  
Dew Point 43 °F    
Average Humidity 64    
Maximum Humidity 82    
Minimum Humidity 36    
Precipitation  
Precipitation 0.00 in - - ()
Sea Level Pressure  
Sea Level Pressure 29.88 in    
Wind  
Wind Speed 4 mph ()    
Max Wind Speed 12 mph    
Max Gust Speed -    
Visibility 8.4 miles    
Events      
T = Trace of Precipitation, MM = Missing Value Source: Averaged Metar Reports

Daily Weather History Graph

Daily Weather History Graph

Search for Another Location

Airport:

Trip Planner

Search our weather history database for the weather conditions in past years. The results will help you decide how hot, cold, wet, or windy it might be!

Date:

Astronomy

Mar. 28, 2014 Rise Set
Actual Time 5:44 AM CET 6:16 PM CET
Civil Twilight 5:15 AM CET 6:45 PM CET
Nautical Twilight 4:41 AM CET 7:19 PM CET
Astronomical Twilight 4:06 AM CET 7:54 PM CET
Moon 4:08 AM CET (3/28) 3:49 PM CET (3/28)
Length of Visible Light 13h 29m
Length of Day
12h 32m
Waning Crescent, 7% of the Moon is Illuminated
Mar 28
Waning Crescent
Mar 30
New
Apr 7
First Quarter
Apr 15
Full
Apr 22
Last Quarter

Hourly Weather History & Observations

Time (CET) Temp. Windchill Dew Point Humidity Pressure Visibility Wind Dir Wind Speed Gust Speed Precip Events Conditions
12:00 AM 50.0 °F - 42.8 °F 76% 29.74 in 6.2 mi North 4.6 mph - N/A   Scattered Clouds
12:30 AM 50.0 °F - 44.6 °F 82% 29.74 in 6.2 mi Variable 2.3 mph - N/A   Scattered Clouds
1:00 AM 49 °F - 44 °F 75% 29.77 in 12 mi NW 4.5 mph - -   Partly Cloudy
1:00 AM 48.2 °F - 42.8 °F 82% 29.74 in 6.2 mi NW 4.6 mph - N/A   Scattered Clouds
1:30 AM 48.2 °F - 42.8 °F 82% 29.77 in 6.2 mi Variable 3.5 mph - N/A   Scattered Clouds
2:00 AM 48.2 °F - 42.8 °F 82% 29.77 in 6.2 mi NNW 4.6 mph - N/A   Scattered Clouds
2:30 AM 48.2 °F - 42.8 °F 82% 29.74 in 6.2 mi Variable 3.5 mph - N/A   Partly Cloudy
3:00 AM 46.4 °F - 41.0 °F 81% 29.74 in 6.2 mi Calm Calm - N/A   Partly Cloudy
3:30 AM 46.4 °F 43.5 °F 41.0 °F 81% 29.74 in 6.2 mi NNW 5.8 mph - N/A   Partly Cloudy
4:00 AM 47 °F - 41 °F 72% 29.78 in 12 mi NW 2.2 mph - -   Partly Cloudy
4:00 AM 46.4 °F 45.2 °F 41.0 °F 81% 29.77 in 6.2 mi Variable 3.5 mph - N/A   Partly Cloudy
4:30 AM 46.4 °F 43.5 °F 41.0 °F 81% 29.77 in 6.2 mi NNW 5.8 mph - N/A   Scattered Clouds
5:00 AM 48.2 °F - 41.0 °F 76% 29.77 in 6.2 mi NNW 4.6 mph - N/A   Scattered Clouds
5:30 AM 48.2 °F - 41.0 °F 76% 29.80 in 6.2 mi NW 4.6 mph - N/A   Scattered Clouds
6:00 AM 48.2 °F - 41.0 °F 76% 29.80 in 6.2 mi NW 5.8 mph - N/A   Scattered Clouds
6:30 AM 50.0 °F - 41.0 °F 71% 29.80 in 6.2 mi Variable 3.5 mph - N/A   Scattered Clouds
7:00 AM 50 °F - 42 °F 65% 29.83 in 12 mi NNE 2.2 mph - -   Scattered Clouds
7:00 AM 50.0 °F - 42.8 °F 76% 29.83 in 6.2 mi Variable 3.5 mph - N/A   Partly Cloudy
7:30 AM 50.0 °F - 42.8 °F 76% 29.83 in 6.2 mi Variable 3.5 mph - N/A   Scattered Clouds
8:00 AM 51.8 °F - 44.6 °F 76% 29.83 in - Variable 1.2 mph - N/A   Clear
8:30 AM 53.6 °F - 44.6 °F 72% 29.83 in - Variable 1.2 mph - N/A   Clear
9:00 AM 55.4 °F - 46.4 °F 72% 29.86 in - Variable 1.2 mph - N/A   Clear
9:30 AM 55.4 °F - 44.6 °F 67% 29.86 in - Variable 1.2 mph - N/A   Clear
10:00 AM 57 °F - 46 °F 57% 29.88 in 19 mi Calm Calm - -   Clear
10:00 AM 57.2 °F - 46.4 °F 67% 29.86 in - Variable 1.2 mph - N/A   Clear
10:30 AM 59.0 °F - 44.6 °F 59% 29.89 in - Variable 2.3 mph - N/A   Clear
11:00 AM 59.0 °F - 42.8 °F 55% 29.89 in - Variable 3.5 mph - N/A   Clear
11:30 AM 59.0 °F - 44.6 °F 59% 29.89 in 6.2 mi SW 6.9 mph - N/A   Partly Cloudy
12:00 PM 57.2 °F - 44.6 °F 63% 29.89 in 6.2 mi SW 6.9 mph - N/A   Partly Cloudy
12:30 PM 57.2 °F - 46.4 °F 67% 29.89 in 6.2 mi SW 8.1 mph - N/A   Partly Cloudy
1:00 PM 58 °F - 45 °F 53% 29.91 in 19 mi SW 8.9 mph - -   Scattered Clouds
1:00 PM 57.2 °F - 44.6 °F 63% 29.89 in 6.2 mi SW 9.2 mph - N/A   Partly Cloudy
1:30 PM 59.0 °F - 46.4 °F 63% 29.89 in 6.2 mi SW 10.4 mph - N/A   Partly Cloudy
2:00 PM 60.8 °F - 46.4 °F 59% 29.89 in 6.2 mi SW 9.2 mph - N/A   Partly Cloudy
2:30 PM 60.8 °F - 46.4 °F 59% 29.89 in 6.2 mi SW 8.1 mph - N/A   Partly Cloudy
3:00 PM 62.6 °F - 42.8 °F 48% 29.89 in 6.2 mi NW 5.8 mph - N/A   Partly Cloudy
3:30 PM 62.6 °F - 42.8 °F 48% 29.89 in 6.2 mi WNW 8.1 mph - N/A   Partly Cloudy
4:00 PM 62 °F - 44 °F 40% 29.92 in 19 mi NW 6.7 mph - -   Scattered Clouds
4:00 PM 60.8 °F - 44.6 °F 55% 29.92 in 6.2 mi NW 6.9 mph - N/A   Partly Cloudy
4:30 PM 62.6 °F - 42.8 °F 48% 29.92 in - WNW 9.2 mph - N/A   Clear
5:00 PM 62.6 °F - 42.8 °F 48% 29.92 in - West 4.6 mph - N/A   Clear
5:30 PM 60.8 °F - 46.4 °F 59% 29.92 in - Variable 5.8 mph - N/A   Clear
6:00 PM 59.0 °F - 46.4 °F 63% 29.95 in - Variable 3.5 mph - N/A   Clear
6:30 PM 57.2 °F - 46.4 °F 67% 29.95 in - Variable 3.5 mph - N/A   Clear
7:00 PM 54 °F - 42 °F 53% 29.98 in 19 mi NNE 4.5 mph - -   Clear
7:00 PM 53.6 °F - 41.0 °F 62% 29.98 in - NNE 4.6 mph - N/A   Clear
7:30 PM 55.4 °F - 41.0 °F 58% 29.98 in - NNE 9.2 mph - N/A   Clear
8:00 PM 55.4 °F - 41.0 °F 58% 29.98 in - NE 4.6 mph - N/A   Clear
8:30 PM 57.2 °F - 39.2 °F 51% 30.01 in - NE 11.5 mph - N/A   Clear
9:00 PM 55.4 °F - 39.2 °F 54% 30.01 in - Variable 2.3 mph - N/A   Clear
9:30 PM 55.4 °F - 39.2 °F 54% 30.01 in - Variable 3.5 mph - N/A   Clear
10:00 PM 58 °F - 38 °F 36% 30.04 in 12 mi North 6.7 mph - -  
10:00 PM 57.2 °F - 39.2 °F 51% 30.04 in - North 6.9 mph - N/A   Clear
10:30 PM 57.2 °F - 39.2 °F 51% 30.04 in - Variable 3.5 mph - N/A   Clear
11:00 PM 53.6 °F - 39.2 °F 58% 30.06 in - Variable 2.3 mph - N/A   Clear
11:30 PM 53.6 °F - 39.2 °F 58% 30.06 in - NNW 6.9 mph - N/A   Clear